Accueil
METAR-TAF:

METAR-TAF

Aéroports :

Aéroport de Morlaix Ploujean

Morlaix, France

latitude: 48-36N, longitude: 3-49W, altitude: 84 m

Observation

Le bulletin a été fait il y a 30 minutes, à 14:00 UTC
Vent 7 kt de ouest/nord-ouest
Température 16°C
Humidité 72%
Pression 1006 hPa
Visibilité 10 km ou plus
Quelques nuages à une hauteur de 2700 ft
Nuages fragmentés à une hauteur de 4400 ft
Ciel couvert à une hauteur de 5200 ft

METAR: LFRU 161400Z AUTO 30007KT 9999 FEW027 BKN044 OVC052 16/11 Q1006

Heure: 16:30 (14:30 UTC)


TAF: absent

Observations et prévisions météorologiques de plus de 4000 aéroports (messages METAR et TAF).

Les stations disponibles sont représentées par des disques jaunes et rouges sur la carte.

Passer la souris dessus pour voir le nom de la station.

Cliquer dessus pour voir les observations et prévisions météorologiques.

Pour changer de carte: cliquez sur les boutons verts avec une croix noire pour zoomer, sur le bouton vert avec un tiret pour effectuer un zoom arrière, ou sur les flèches vertes pour les cartes adjacentes.


METAR-TAF: